NI0Z Weather Reports


Display with metric or nautical units.
time (UTC)temp
F
wind
direction
speed
MPH
gust
MPH
rain 1hr
in
rain 24hr
in
rain mn
in
humidity
%
barometer
mb
20260509160432 71 159 2.0 7.0 0.00 0.00 0.00 54
20260509155927 71 318 1.0 3.0 0.00 0.00 0.00 54
20260509155424 71 142 2.0 3.0 0.00 0.00 0.00 55
20260509154920 70 331 1.0 5.0 0.00 0.00 0.00 56
20260509154417 71 43 1.0 2.0 0.00 0.00 0.00 57
20260509153914 70 333 0.0 1.0 0.00 0.00 0.00 60
20260509153411 69 330 0.0 1.0 0.00 0.00 0.00 61
20260509152908 69 336 0.0 5.0 0.00 0.00 0.00 61
20260509152404 68 156 3.0 5.0 0.00 0.00 0.00 61
20260509151901 68 290 1.0 3.0 0.00 0.00 0.00 62
20260509151357 68 317 0.0 1.0 0.00 0.00 0.00 64
20260509150855 67 161 4.0 6.0 0.00 0.00 0.00 64
20260509150353 66 156 1.0 3.0 0.00 0.00 0.00 65
20260509145850 66 285 1.0 5.0 0.00 0.00 0.00 65
20260509145344 66 346 1.0 2.0 0.00 0.00 0.00 65
20260509144841 65 318 0.0 5.0 0.00 0.00 0.00 66
20260509144338 65 10 1.0 3.0 0.00 0.00 0.00 66
20260509143835 65 195 2.0 3.0 0.00 0.00 0.00 66
20260509143333 64 351 0.0 1.0 0.00 0.00 0.00 69
20260509142829 63 291 1.0 2.0 0.00 0.00 0.00 70
20260509142325 63 232 0.0 2.0 0.00 0.00 0.00 70
20260509141821 63 280 1.0 3.0 0.00 0.00 0.00 70
20260509141318 62 333 0.0 0.0 0.00 0.00 0.00 72
20260509140814 62 128 3.0 5.0 0.00 0.00 0.00 72
20260509140312 61 314 0.0 1.0 0.00 0.00 0.00 73
20260509135810 61 147 2.0 5.0 0.00 0.00 0.00 73
20260509135307 60 261 1.0 1.0 0.00 0.00 0.00 75
20260509134804 60 308 0.0 2.0 0.00 0.00 0.00 77
20260509134301 59 326 0.0 2.0 0.00 0.00 0.00 76
20260509133758 59 279 2.0 3.0 0.00 0.00 0.00 77
20260509133254 58 305 0.0 3.0 0.00 0.00 0.00 79
20260509132753 58 221 0.0 1.0 0.00 0.00 0.00 80
20260509132252 57 325 0.0 0.0 0.00 0.00 0.00 80
20260509131748 57 311 0.0 0.0 0.00 0.00 0.00 80
20260509131244 56 344 0.0 1.0 0.00 0.00 0.00 82
20260509130741 56 326 0.0 0.0 0.00 0.00 0.00 82
20260509130236 55 338 0.0 0.0 0.00 0.00 0.00 83
20260509125733 55 336 0.0 0.0 0.00 0.00 0.00 83
20260509125230 55 342 0.0 0.0 0.00 0.00 0.00 84
20260509124726 54 324 0.0 0.0 0.00 0.00 0.00 85
20260509124223 54 329 0.0 0.0 0.00 0.00 0.00 86
20260509123722 54 339 0.0 0.0 0.00 0.00 0.00 87
20260509123219 53 335 0.0 0.0 0.00 0.00 0.00 87
20260509122714 53 338 0.0 0.0 0.00 0.00 0.00 88
20260509122211 53 337 0.0 0.0 0.00 0.00 0.00 89
20260509121708 52 332 0.0 0.0 0.00 0.00 0.00 89
20260509121206 52 319 0.0 0.0 0.00 0.00 0.00 90
20260509120703 52 333 0.0 0.0 0.00 0.00 0.00 90
20260509120201 52 333 0.0 0.0 0.00 0.00 0.00 90
20260509115659 51 333 0.0 0.0 0.00 0.00 0.00 91
20260509115156 51 331 0.0 0.0 0.00 0.00 0.00 91
20260509114654 51 329 0.0 0.0 0.00 0.00 0.00 90
20260509114153 51 325 0.0 0.0 0.00 0.00 0.00 90
20260509113651 51 330 0.0 0.0 0.00 0.00 0.00 90
20260509113147 51 326 0.0 0.0 0.00 0.00 0.00 90
20260509112644 52 326 0.0 0.0 0.00 0.00 0.00 90
20260509112141 52 329 0.0 0.0 0.00 0.00 0.00 90
20260509111638 52 326 0.0 0.0 0.00 0.00 0.00 90
20260509111135 52 326 0.0 0.0 0.00 0.00 0.00 89
20260509110632 52 327 0.0 0.0 0.00 0.00 0.00 89
20260509110129 52 335 0.0 0.0 0.00 0.00 0.00 89
20260509105627 53 329 0.0 0.0 0.00 0.00 0.00 89
20260509105125 53 329 0.0 0.0 0.00 0.00 0.00 88
20260509104622 53 333 0.0 0.0 0.00 0.00 0.00 88
20260509104118 53 333 0.0 0.0 0.00 0.00 0.00 88
20260509103616 53 334 0.0 0.0 0.00 0.00 0.00 88
20260509103114 54 336 0.0 0.0 0.00 0.00 0.00 88
20260509102611 54 342 0.0 0.0 0.00 0.00 0.00 87
20260509102108 54 334 0.0 0.0 0.00 0.00 0.00 87
20260509101604 54 335 0.0 2.0 0.00 0.00 0.00 87
20260509101101 54 341 0.0 1.0 0.00 0.00 0.00 87
20260509100558 54 341 0.0 0.0 0.00 0.00 0.00 88
20260509100055 54 338 0.0 0.0 0.00 0.00 0.00 88
20260509095552 54 336 0.0 1.0 0.00 0.00 0.00 88
20260509095050 54 338 0.0 0.0 0.00 0.00 0.00 88
20260509094545 55 334 0.0 0.0 0.00 0.00 0.00 88
20260509094043 55 337 0.0 0.0 0.00 0.00 0.00 88
20260509093541 55 337 0.0 1.0 0.00 0.00 0.00 88
20260509093038 55 336 0.0 0.0 0.00 0.00 0.00 88
20260509092536 55 339 0.0 0.0 0.00 0.00 0.00 88
20260509092035 55 340 0.0 0.0 0.00 0.00 0.00 89
20260509091532 55 344 0.0 0.0 0.00 0.00 0.00 90
20260509091028 55 337 0.0 0.0 0.00 0.00 0.00 91
20260509090526 55 344 0.0 0.0 0.00 0.00 0.00 91
20260509090023 55 337 0.0 0.0 0.00 0.00 0.00 92
20260509085520 55 337 0.0 1.0 0.00 0.00 0.00 92
20260509085016 55 333 0.0 0.0 0.00 0.00 0.00 93
20260509084513 54 338 0.0 0.0 0.00 0.00 0.00 93
20260509084010 54 340 0.0 0.0 0.00 0.00 0.00 93
20260509083508 54 339 0.0 0.0 0.00 0.00 0.00 93
20260509083004 54 356 0.0 0.0 0.00 0.00 0.00 93
20260509082502 54 333 0.0 0.0 0.00 0.00 0.00 93
20260509081959 54 358 0.0 0.0 0.00 0.00 0.00 93
20260509081456 54 341 0.0 0.0 0.00 0.00 0.00 93
20260509080952 54 337 0.0 0.0 0.00 0.00 0.00 94
20260509080451 54 338 0.0 0.0 0.00 0.00 0.00 94
20260509075949 54 350 0.0 0.0 0.00 0.00 0.00 94
20260509075445 55 337 0.0 0.0 0.00 0.00 0.00 94
20260509074943 55 345 0.0 0.0 0.00 0.00 0.00 94
20260509074441 54 335 0.0 0.0 0.00 0.00 0.00 94
20260509073936 54 336 0.0 0.0 0.00 0.00 0.00 94
20260509073433 54 339 0.0 0.0 0.00 0.00 0.00 94
20260509072929 55 335 0.0 0.0 0.00 0.00 0.00 93
20260509072427 55 339 0.0 0.0 0.00 0.00 0.00 93
20260509071923 54 344 0.0 0.0 0.00 0.00 0.00 93
20260509071420 55 340 0.0 0.0 0.00 0.00 0.00 93
20260509070918 55 2 0.0 0.0 0.00 0.00 0.00 93
20260509070415 55 335 0.0 1.0 0.00 0.00 0.00 93
20260509065909 55 345 0.0 0.0 0.00 0.00 0.00 93
20260509065406 55 339 1.0 2.0 0.00 0.00 0.00 93
20260509064902 55 342 1.0 2.0 0.00 0.00 0.00 93
20260509064400 55 352 0.0 0.0 0.00 0.00 0.00 93
20260509063858 55 339 0.0 0.0 0.00 0.00 0.00 92
20260509063353 55 331 0.0 0.0 0.00 0.00 0.00 92
20260509062851 55 332 0.0 0.0 0.00 0.00 0.00 92
20260509062348 55 333 0.0 0.0 0.00 0.00 0.00 92
20260509061845 55 339 0.0 0.0 0.00 0.00 0.00 92
20260509061343 55 330 0.0 0.0 0.00 0.00 0.00 92
20260509060839 55 335 0.0 0.0 0.00 0.00 0.00 92
20260509060337 55 335 0.0 0.0 0.00 0.00 0.00 91
20260509055832 55 331 0.0 0.0 0.00 0.00 0.00 91
20260509055327 55 332 0.0 0.0 0.00 0.00 0.00 91
20260509054825 55 332 0.0 0.0 0.00 0.00 0.00 91
20260509054321 55 337 0.0 0.0 0.00 0.00 0.00 90
20260509053820 54 338 0.0 0.0 0.00 0.00 0.00 90
20260509053316 54 332 0.0 0.0 0.00 0.00 0.00 90
20260509052815 54 332 0.0 0.0 0.00 0.00 0.00 90
20260509052312 54 339 0.0 0.0 0.00 0.00 0.00 90
20260509051810 54 339 0.0 0.0 0.00 0.00 0.00 89
20260509051307 54 332 0.0 0.0 0.00 0.00 0.00 89
20260509050804 54 332 0.0 0.0 0.00 0.00 0.00 89
20260509050300 54 332 0.0 0.0 0.00 0.00 0.00 89
20260509045758 55 332 0.0 0.0 0.00 0.01 0.01 89
20260509045254 55 332 0.0 0.0 0.00 0.01 0.01 88
20260509044752 55 332 0.0 0.0 0.00 0.01 0.01 88
20260509044249 54 332 0.0 0.0 0.00 0.01 0.01 88
20260509043745 55 332 0.0 0.0 0.00 0.01 0.01 88
20260509043241 55 333 0.0 0.0 0.00 0.01 0.01 88
20260509042738 55 330 0.0 0.0 0.00 0.01 0.01 88
20260509042234 55 332 0.0 0.0 0.00 0.01 0.01 88
20260509041731 55 332 0.0 0.0 0.00 0.01 0.01 88
20260509041228 55 339 0.0 0.0 0.00 0.01 0.01 88
20260509040727 55 340 0.0 0.0 0.00 0.01 0.01 87
20260509040223 55 330 0.0 0.0 0.00 0.01 0.01 87
20260509035719 55 331 0.0 0.0 0.00 0.01 0.01 87
20260509035217 55 331 0.0 0.0 0.00 0.01 0.01 87
20260509034714 55 329 0.0 0.0 0.00 0.01 0.01 88
20260509034211 55 330 0.0 0.0 0.00 0.01 0.01 87
20260509033708 55 331 0.0 0.0 0.00 0.01 0.01 87
20260509033205 55 329 0.0 0.0 0.00 0.01 0.01 87
20260509032702 55 330 0.0 0.0 0.00 0.01 0.01 87
20260509032159 55 337 0.0 0.0 0.00 0.01 0.01 87
20260509031657 55 329 0.0 0.0 0.00 0.01 0.01 87
20260509031154 56 330 0.0 0.0 0.00 0.01 0.01 87
20260509030652 55 334 0.0 0.0 0.00 0.01 0.01 87
20260509030149 55 330 0.0 0.0 0.00 0.01 0.01 87
20260509025645 55 331 0.0 0.0 0.00 0.01 0.01 88
20260509025141 55 331 0.0 0.0 0.00 0.01 0.01 88
20260509024636 55 332 0.0 0.0 0.00 0.01 0.01 87
20260509024133 55 330 0.0 0.0 0.00 0.01 0.01 87
20260509023631 56 329 0.0 0.0 0.00 0.01 0.01 87
20260509023127 56 328 0.0 0.0 0.00 0.01 0.01 87
20260509022623 56 330 0.0 0.0 0.00 0.01 0.01 86
20260509022122 56 328 0.0 0.0 0.00 0.01 0.01 86
20260509021618 56 329 0.0 0.0 0.00 0.01 0.01 86
20260509021115 56 329 0.0 0.0 0.00 0.01 0.01 85
20260509020614 57 329 0.0 0.0 0.00 0.01 0.01 85
20260509020110 57 329 0.0 0.0 0.00 0.01 0.01 85
20260509015609 57 329 0.0 0.0 0.00 0.01 0.01 84
20260509015106 57 334 0.0 0.0 0.00 0.01 0.01 84
20260509014602 58 338 0.0 0.0 0.00 0.01 0.01 84
20260509014059 58 329 0.0 0.0 0.00 0.01 0.01 83
20260509013556 58 328 0.0 0.0 0.00 0.01 0.01 82
20260509013051 59 328 0.0 0.0 0.00 0.01 0.01 81
20260509012549 59 328 0.0 0.0 0.00 0.01 0.01 80
20260509012045 60 328 0.0 0.0 0.00 0.01 0.01 79
20260509011543 60 328 0.0 0.0 0.00 0.01 0.01 79
20260509011040 60 327 0.0 0.0 0.00 0.01 0.01 78
20260509010538 61 321 0.0 0.0 0.00 0.01 0.01 78
20260509010035 62 328 0.0 0.0 0.00 0.01 0.01 76
20260509005532 62 328 0.0 0.0 0.00 0.01 0.01 76
20260509005027 62 322 0.0 0.0 0.00 0.01 0.01 75
20260509004524 62 321 0.0 0.0 0.00 0.01 0.01 75
20260509004021 63 321 0.0 0.0 0.00 0.01 0.01 74
20260509003520 63 309 0.0 0.0 0.00 0.01 0.01 74
20260509003016 63 315 1.0 1.0 0.00 0.01 0.01 73
20260509002514 64 313 0.0 0.0 0.00 0.01 0.01 72
20260509002011 64 323 0.0 0.0 0.00 0.01 0.01 72
20260509001508 64 311 0.0 0.0 0.00 0.01 0.01 72
20260509001004 64 319 0.0 0.0 0.00 0.01 0.01 72
20260509000503 64 318 0.0 0.0 0.00 0.01 0.01 72
20260508235958 64 297 0.0 2.0 0.00 0.01 0.01 72
20260508235456 64 260 0.0 1.0 0.00 0.01 0.01 71
20260508234952 65 253 3.0 3.0 0.00 0.01 0.01 70
20260508234449 66 293 2.0 3.0 0.00 0.01 0.01 69
20260508233947 65 313 0.0 2.0 0.00 0.01 0.01 70
20260508233446 65 293 3.0 3.0 0.00 0.01 0.01 70
20260508232942 64 326 0.0 1.0 0.00 0.01 0.01 74
20260508232439 63 307 1.0 1.0 0.00 0.01 0.01 75
20260508231937 63 314 0.0 0.0 0.00 0.01 0.01 77
20260508231434 63 230 0.0 1.0 0.00 0.01 0.01 76
20260508230931 63 315 0.0 0.0 0.00 0.01 0.01 76
20260508230427 63 335 0.0 0.0 0.00 0.01 0.01 74
20260508225924 63 334 0.0 0.0 0.00 0.01 0.01 74
20260508225421 62 339 1.0 1.0 0.00 0.01 0.01 75
20260508224919 62 333 0.0 1.0 0.00 0.01 0.01 75
20260508224416 63 337 0.0 0.0 0.00 0.01 0.01 77
20260508223913 63 324 0.0 0.0 0.00 0.01 0.01 78
20260508223411 62 296 1.0 2.0 0.00 0.01 0.01 79
20260508222908 62 338 1.0 2.0 0.00 0.01 0.01 78
20260508222405 62 336 0.0 0.0 0.00 0.01 0.01 79
20260508221902 62 4 2.0 2.0 0.00 0.01 0.01 80
20260508221357 61 328 0.0 0.0 0.00 0.01 0.01 80
20260508220854 61 316 0.0 1.0 0.00 0.01 0.01 81
20260508220351 61 314 1.0 2.0 0.00 0.01 0.01 81
20260508215847 61 312 1.0 2.0 0.00 0.01 0.01 81
20260508215344 61 315 1.0 1.0 0.00 0.01 0.01 81
20260508214841 61 250 2.0 6.0 0.00 0.01 0.01 80
20260508214338 61 251 3.0 6.0 0.00 0.01 0.01 81
20260508213834 61 255 1.0 3.0 0.00 0.01 0.01 81
20260508213332 61 250 4.0 5.0 0.00 0.01 0.01 81
20260508212827 61 238 3.0 6.0 0.00 0.01 0.01 81
20260508212324 62 296 2.0 5.0 0.05 0.01 0.01 81
20260508211820 62 283 3.0 5.0 0.05 0.01 0.01 80
20260508211315 62 261 0.0 1.0 0.00 0.00 0.00 79
20260508210813 62 313 1.0 5.0 0.00 0.00 0.00 79
20260508210310 62 276 1.0 2.0 0.00 0.00 0.00 78
20260508205807 63 302 0.0 1.0 0.00 0.00 0.00 78
20260508205306 63 318 1.0 1.0 0.00 0.00 0.00 76
20260508204759 64 303 2.0 5.0 0.00 0.00 0.00 74
20260508204256 64 287 1.0 2.0 0.00 0.00 0.00 73
20260508203752 64 215 1.0 1.0 0.00 0.00 0.00 72
20260508203248 64 311 0.0 2.0 0.00 0.00 0.00 71
20260508202744 65 307 0.0 3.0 0.00 0.00 0.00 71
20260508202242 65 281 3.0 3.0 0.00 0.00 0.00 71
20260508201739 66 322 0.0 1.0 0.00 0.00 0.00 70
20260508201235 66 311 0.0 0.0 0.00 0.00 0.00 70
20260508200732 66 329 0.0 0.0 0.00 0.00 0.00 71
20260508200228 66 296 0.0 0.0 0.00 0.00 0.00 72
20260508195725 65 315 0.0 0.0 0.00 0.00 0.00 72
20260508195221 64 317 1.0 2.0 0.00 0.00 0.00 71
20260508194718 64 344 0.0 0.0 0.00 0.00 0.00 71
20260508194215 64 328 0.0 0.0 0.00 0.00 0.00 71
20260508193712 64 325 0.0 0.0 0.00 0.00 0.00 70
20260508193208 64 331 0.0 0.0 0.00 0.00 0.00 70
20260508192705 64 327 0.0 3.0 0.00 0.00 0.00 70
20260508192202 64 327 0.0 1.0 0.00 0.00 0.00 70
20260508191659 64 332 1.0 2.0 0.00 0.00 0.00 69
20260508191156 64 337 0.0 0.0 0.00 0.00 0.00 71
20260508190653 64 322 0.0 0.0 0.00 0.00 0.00 73
20260508190149 63 328 0.0 0.0 0.00 0.00 0.00 73
20260508185646 63 334 0.0 0.0 0.00 0.00 0.00 73
20260508185144 63 327 0.0 0.0 0.00 0.00 0.00 73
20260508184641 63 327 1.0 2.0 0.00 0.00 0.00 72
20260508184138 63 322 0.0 3.0 0.00 0.00 0.00 71
20260508183635 64 335 0.0 2.0 0.00 0.00 0.00 70
20260508183130 64 329 0.0 0.0 0.00 0.00 0.00 70
20260508182627 64 317 0.0 1.0 0.00 0.00 0.00 70
20260508182124 64 332 0.0 0.0 0.00 0.00 0.00 69
20260508181619 64 336 0.0 0.0 0.00 0.00 0.00 69
20260508181117 64 331 0.0 0.0 0.00 0.00 0.00 70
20260508180613 64 335 1.0 2.0 0.00 0.00 0.00 69
20260508180110 63 338 0.0 0.0 0.00 0.00 0.00 70
20260508175607 63 335 0.0 0.0 0.00 0.00 0.00 69
20260508175104 63 315 0.0 0.0 0.00 0.00 0.00 70
20260508174601 63 327 0.0 0.0 0.00 0.00 0.00 69
20260508174058 64 313 0.0 1.0 0.00 0.00 0.00 69
20260508173555 64 341 0.0 0.0 0.00 0.00 0.00 69
20260508173051 64 319 0.0 0.0 0.00 0.00 0.00 69
20260508172548 63 332 0.0 0.0 0.00 0.00 0.00 68
20260508172044 63 339 0.0 0.0 0.00 0.00 0.00 68
20260508171541 63 299 0.0 0.0 0.00 0.00 0.00 69
20260508171038 62 316 0.0 2.0 0.00 0.00 0.00 70
20260508170535 62 317 0.0 0.0 0.00 0.00 0.00 70
20260508170032 62 315 0.0 0.0 0.00 0.00 0.00 71
20260508165529 61 327 1.0 1.0 0.00 0.00 0.00 70
20260508165026 61 329 0.0 2.0 0.00 0.00 0.00 70
20260508164522 61 320 0.0 0.0 0.00 0.00 0.00 70
20260508164019 61 334 0.0 0.0 0.00 0.00 0.00 71
20260508163517 61 321 0.0 2.0 0.00 0.00 0.00 71
20260508163013 61 332 0.0 0.0 0.00 0.00 0.00 70
20260508162510 60 321 0.0 0.0 0.00 0.00 0.00 71
20260508162008 60 320 0.0 0.0 0.00 0.00 0.00 70
20260508161504 60 336 0.0 0.0 0.00 0.00 0.00 70
20260508161001 61 326 0.0 0.0 0.00 0.00 0.00 70